Location: Columbia, SC
(34.0000°N, 81.0300°W)
Time: 12:09:30
(UTC-04:00)

Tiangong 1 - Visible Passes

Search period start: 24 October 2014 00:00
Search period end: 02 November 2014 23:00
Orbit: 351 x 361 km, 42.8° (Epoch: 24 October)

Date Brightness Start Highest point End Pass type
(mag) Time Alt. Az. Time Alt. Az. Time Alt. Az.
24 Oct 3.9 20:38:20 10° WNW 20:39:13 15° NW 20:39:13 15° NW visible
25 Oct 2.5 19:28:53 10° W 19:31:31 28° NNW 19:33:38 14° NE visible
26 Oct 3.1 19:56:52 10° NW 19:58:58 17° N 19:59:30 17° N visible
27 Oct 3.8 20:24:35 10° NW 20:25:12 12° NNW 20:25:12 12° NNW visible
28 Oct 3.2 19:14:54 10° NW 19:16:53 16° N 19:18:52 10° NE visible
29 Oct 3.1 19:42:14 10° NW 19:44:04 15° N 19:44:39 14° NNE visible
30 Oct 3.3 20:08:49 10° NW 20:10:00 16° NNW 20:10:00 16° NNW visible
31 Oct 3.1 18:59:21 10° NW 19:01:14 15° N 19:03:07 10° NE visible
31 Oct 4.1 20:35:03 10° NW 20:35:17 12° NW 20:35:17 12° NW visible
01 Nov 2.6 19:25:35 10° NW 19:27:58 21° NNE 19:28:56 18° NE visible
02 Nov 1.5 18:51:34 10° NW 18:54:09 42° N 18:54:09 42° N visible
